Regional Weather Roundup
Issued by NWS Sioux Falls, SD

Home | Current Version | Previous Version | Graphics & Text | Print | Product List | Glossary On
Versions: 1 2 3 4 5 6 7 8 9 10 11 12 13 14 15 16 17 18 19 20 21 22 23 24 25 26 27 28 29 30 31 32 33 34 35 36 37 38 39 40 41 42 43 44 45 46 47 48 49 50
000
ASUS43 KFSD 290102
RWRFSD

WEATHER ROUNDUP FOR SE SOUTH DAKOTA/SW MINNESOTA/NW IOWA
NATIONAL WEATHER SERVICE SIOUX FALLS SD
800 PM CDT MON JUL 28 2014

NOTE: "FAIR" INDICATES FEW OR NO CLOUDS BELOW 12,000 FEET WITH NO
SIGNIFICANT WEATHER AND OR OBSTRUCTIONS TO VISIBILITY.


SDZ038>040-050-052>070-290200-
SOUTHEAST SOUTH DAKOTA

CITY           SKY/WX    TMP DP  RH WIND       PRES   REMARKS
CHAMBERLAIN    SUNNY     74  52  46 E5        30.21S
HURON          CLEAR     72  51  47 NE7       30.21S
MADISON        FAIR      66  54  63 NE3       30.22F
MITCHELL       CLEAR     72  54  53 N5        30.21F
SIOUX FALLS    PTCLDY    70  54  56 NE8       30.20F
WINNER         FAIR      79  49  34 NE6       30.21F
YANKTON        CLEAR     72  54  53 NW5       30.20F
$$

MNZ071-072-080-081-089-090-097-098-290200-
SOUTHWEST MINNESOTA

CITY           SKY/WX    TMP DP  RH WIND       PRES   REMARKS
FAIRMONT       PTCLDY    72  52  49 NW6       30.17F
JACKSON        CLEAR     68  54  60 N3        30.20S
LUVERNE        CLEAR     70  54  56 N5        30.21S
MARSHALL       CLEAR     68  52  56 NW9       30.19S
MONTEVIDEO     CLEAR     70  54  56 N7        30.19F
PIPESTONE      CLEAR     68  54  60 NE7       30.21F
REDWOOD FALLS  CLEAR     71  53  52 NW7       30.17F
TRACY          CLEAR     68  54  61 NW6       30.20F
WINDOM         CLEAR     68  55  64 NW5       30.19F
WORTHINGTON    CLEAR     66  55  68 N6        30.21F
$$

IAZ001>003-012>014-020>022-031-032-NEZ013-014-SDZ071-290200-
NORTHWEST IOWA

CITY           SKY/WX    TMP DP  RH WIND       PRES   REMARKS
CHEROKEE       PTCLDY    69  58  67 N5        30.18S
DENISON        MOCLDY    70  61  73 NW5       30.16S
ESTHERVILLE    CLEAR     68  55  63 N7        30.18F
LE MARS        CLEAR     72  59  64 N5        30.19S
ORANGE CITY    PTCLDY    72  55  56 N6        30.19F
SHELDON        CLOUDY    70  59  68 N3        30.19S
SIOUX CITY     CLEAR     74  57  55 N6        30.18F
SPENCER        CLEAR     69  56  62 N6        30.19S
STORM LAKE     MOCLDY    70  61  73 N7G13     30.19S
$$

ABBREVIATIONS USED IN REMARKS
   TC - TEMPERATURE IN CELSIUS
  WCI - WIND CHILL INDEX
   HX - HEAT INDEX
  VSB - VISIBILITY



USA.gov is the U.S. government's official web portal to all federal, state and local government web resources and services.